Flag for Canada Weather past 2 weeks in Riverview, New Brunswick, Canada

Now
28 °F

Ice fog.


Feels Like: 21 °F
Forecast: 31 / 49 °F
Wind: 7 mph from Southwest

Location: Moncton

Current Time: Apr 26, 2015 at 4:08:35 AM

Latest Report: Apr 26, 2015 at 3:00 AM


Visibility: 0 mi

Pressure: 29.60 "Hg

Humidity: 93%

Dew point: 27 °F

Location of RiverviewLocation

Historic Weather in Riverview — Graph

°F

Riverview temperature yesterday

Maximum temperature yesterday: 43 °F (at 2:00 PM)
Minimum temperature yesterday: 32 °F (at 11:00 PM)
Average temperature yesterday: 37 °F

Past Weeks' High & Low Weather Summary

 TemperatureHumidityPressure
High61 °F (Apr 13, 3:00 PM)100% (Apr 11, 3:00 AM)30.38 "Hg (Apr 11, 3:00 AM)
Low23 °F (Apr 16, 4:00 AM)27% (Apr 16, 5:00 PM)29.40 "Hg (Apr 11, 1:00 PM)
Average39 °F72%29.90 "Hg
* Reported Apr 11 3:00 AM — Apr 26 3:00 AM, Riverview, Weather by CustomWeather, © 2015

Note: Actual official high and low records may vary slightly from our data, if they occured in-between our weather recording intervals... More about our weather records

Advertising

Riverview weather history for previous 24 hours

 ConditionsComfort  
Time TempWeatherWind HumidityBarometerVisibility
3:00 AM
Sun, Apr 26
28 °FIce fog.7 mph93%29.60 "Hg0 mi
2:00 AM28 °FIce fog.7 mph100%29.60 "Hg0 mi
1:00 AM30 °FIce fog.5 mph93%29.61 "Hg6 mi
12:00 AM32 °FPassing clouds.3 mph93%29.61 "Hg15 mi
11:00 PM
Sat, Apr 25
32 °FPassing clouds.3 mph93%29.62 "Hg15 mi
10:00 PM34 °FPassing clouds.6 mph93%29.64 "Hg15 mi
9:00 PM36 °FScattered clouds.2 mph87%29.63 "Hg15 mi
8:00 PM37 °FPartly sunny.8 mph87%29.62 "Hg15 mi
7:00 PM39 °FPartly sunny.6 mph81%29.61 "Hg15 mi
6:00 PM41 °FScattered showers. Partly sunny.6 mph76%29.60 "Hg15 mi
5:00 PM41 °FPartly sunny.9 mph87%29.60 "Hg15 mi
4:00 PM43 °FSprinkles. Partly sunny.2 mph76%29.59 "Hg15 mi
3:00 PM43 °FBroken clouds.5 mph81%29.60 "Hg15 mi
2:00 PM43 °FPartly sunny.3 mph76%29.61 "Hg15 mi
1:00 PM41 °FPartly sunny.5 mph81%29.61 "Hg15 mi
12:00 PM39 °FMostly cloudy.8 mph87%29.61 "Hg15 mi
11:00 AM39 °FMostly cloudy.5 mph93%29.59 "Hg15 mi
10:00 AM37 °FMostly cloudy.7 mph100%29.59 "Hg15 mi
9:00 AM36 °FDrizzle. Fog.8 mph100%29.59 "Hg4 mi
8:45 AM36 °FDrizzle. Fog.7 mph100%29.60 "Hg4 mi
8:00 AM36 °FDrizzle. Fog.5 mph100%29.59 "Hg1 mi
7:00 AM36 °FFog.2 mph100%29.58 "Hg1 mi
6:00 AM34 °FFog.3 mph100%29.57 "Hg1 mi
5:00 AM34 °FFog.3 mph100%29.56 "Hg1 mi
4:00 AM34 °FFog.2 mph100%29.56 "Hg1 mi
Weather by CustomWeather, © 2015

See weather overviewHow to use our weather pages